FW2218 Weather Reports


Display with metric or nautical units.
time (UTC)temp
F
wind
direction
speed
MPH
gust
MPH
rain 1hr
in
rain 24hr
in
rain mn
in
humidity
%
barometer
mb
20260505101613 63 282 4.0 9.0 0.00 0.00 0.00 69 1005.1
20260505100108 64 267 6.0 15.0 0.00 0.00 0.00 67 1004.9
20260505093104 65 265 9.0 20.0 0.00 0.00 0.00 67 1004.7
20260505091530 65 272 9.0 18.0 0.00 0.00 0.00 66 1004.6
20260505090106 65 268 9.0 18.0 0.00 0.00 0.00 66 1004.5
20260505084532 65 269 8.0 16.0 0.00 0.00 0.00 66 1004.4
20260505083031 65 272 6.0 16.0 0.00 0.00 0.00 67 1004.4
20260505081541 66 279 6.0 14.0 0.00 0.00 0.00 65 1004.4
20260505080034 65 273 6.0 15.0 0.00 0.00 0.00 66 1004.4
20260505074603 65 279 4.0 15.0 0.00 0.00 0.00 68 1004.3
20260505073036 64 277 4.0 9.0 0.00 0.00 0.00 69 1004.2
20260505071535 65 291 4.0 8.0 0.00 0.00 0.00 68 1004.1
20260505064528 67 314 1.0 6.0 0.00 0.00 0.00 61 1003.9
20260505063037 68 278 6.0 15.0 0.00 0.00 0.00 60 1003.7
20260505061533 68 277 8.0 14.0 0.00 0.00 0.00 59 1003.6
20260505060040 69 282 8.0 17.0 0.00 0.00 0.00 56 1003.6
20260505053032 69 274 6.0 11.0 0.00 0.00 0.00 55 1003.6
20260505051534 70 277 4.0 18.0 0.00 0.00 0.00 53 1003.5
20260505050107 70 269 4.0 13.0 0.00 0.00 0.00 51 1003.4
20260505041530 72 273 7.0 18.0 0.00 0.00 0.00 49 1002.5
20260505040046 72 270 9.0 18.0 0.00 0.00 0.00 49 1002.3
20260505034529 72 270 9.0 17.0 0.00 0.00 0.00 49 1002.1
20260505033031 72 268 10.0 20.0 0.00 0.00 0.00 50 1001.8
20260505031644 72 270 9.0 19.0 0.00 0.00 0.00 53 1001.8
20260505030107 73 279 8.0 16.0 0.00 0.00 0.00 52 1001.6
20260505024532 73 285 7.0 17.0 0.00 0.00 0.00 52 1001.5
20260505023031 74 291 5.0 14.0 0.00 0.00 0.00 52 1001.5
20260505021531 75 289 6.0 13.0 0.00 0.00 0.00 51 1001.5
20260505014537 76 292 6.0 17.0 0.00 0.00 0.00 48 1001.4
20260505013031 77 291 7.0 18.0 0.00 0.00 0.00 47 1001.4
20260505011537 77 297 7.0 17.0 0.00 0.00 0.00 47 1001.4
20260505010033 78 301 8.0 18.0 0.00 0.00 0.00 45 1001.4
20260505004536 78 297 8.0 17.0 0.00 0.00 0.00 45 1001.4
20260505001532 79 299 9.0 19.0 0.00 0.00 0.00 44 1001.4
20260505000032 79 296 8.0 18.0 0.00 0.00 0.00 44 1001.5
20260504234532 80 300 8.0 18.0 0.00 0.00 0.00 44 1001.4
20260504233032 80 302 8.0 21.0 0.00 0.00 0.00 44 1001.4
20260504231529 80 299 9.0 18.0 0.00 0.00 0.00 43 1001.5
20260504230031 80 292 8.0 19.0 0.00 0.00 0.00 43 1001.7
20260504224531 81 297 8.0 14.0 0.00 0.00 0.00 42 1001.8
20260504223102 81 297 6.0 14.0 0.00 0.00 0.00 42 1002.1
20260504221531 82 294 7.0 14.0 0.00 0.00 0.00 41 1002.2
20260504214531 81 294 5.0 13.0 0.00 0.00 0.00 42 1002.4
20260504213112 81 299 7.0 15.0 0.00 0.00 0.00 42 1002.6
20260504210030 81 294 6.0 13.0 0.00 0.00 0.00 43 1002.8
20260504203052 80 296 6.0 14.0 0.00 0.00 0.00 43 1003.1
20260504201529 79 290 7.0 14.0 0.00 0.00 0.00 44 1003.3
20260504200146 78 291 7.0 15.0 0.00 0.00 0.00 45 1003.5
20260504194646 78 296 7.0 16.0 0.00 0.00 0.00 46 1003.5
20260504193031 78 292 6.0 16.0 0.00 0.00 0.00 46 1003.6
20260504190032 76 294 7.0 17.0 0.00 0.00 0.00 47 1003.8
20260504184602 76 291 6.0 15.0 0.00 0.00 0.00 47 1003.9
20260504183031 76 291 6.0 13.0 0.00 0.00 0.00 49 1003.9
20260504180032 76 293 6.0 13.0 0.00 0.00 0.00 48 1004.0
20260504174531 76 299 5.0 11.0 0.00 0.00 0.00 47 1004.1
20260504171537 74 295 2.0 5.0 0.00 0.00 0.00 50 1004.1